| time (UTC) | temp F | wind direction | speed MPH | gust MPH | rain 1hr in | rain 24hr in | rain mn in | humidity % | barometer mb |
| 20260509053110 | 62 | 0 | 0.0 | 0.0 | 0.00 | 0.00 | 0.00 | 83 | 1014.0 |
| 20260509051558 | 62 | 0 | 0.0 | 0.0 | 0.00 | 0.00 | 0.00 | 82 | 1014.2 |
| 20260509044601 | 62 | 0 | 0.0 | 0.0 | 0.00 | 0.00 | 0.00 | 80 | 1014.3 |
| 20260509043053 | 62 | 0 | 0.0 | 0.0 | 0.00 | 0.00 | 0.00 | 79 | 1014.5 |
| 20260509041549 | 62 | 0 | 0.0 | 0.0 | 0.00 | 0.00 | 0.00 | 79 | 1014.4 |
| 20260509040056 | 62 | 0 | 0.0 | 0.0 | 0.00 | 0.00 | 0.00 | 78 | 1014.6 |
| 20260509034551 | 62 | 0 | 0.0 | 0.0 | 0.00 | 0.00 | 0.00 | 76 | 1015.1 |
| 20260509033052 | 62 | 0 | 0.0 | 0.0 | 0.00 | 0.00 | 0.00 | 75 | 1014.8 |
| 20260509031553 | 63 | 0 | 0.0 | 0.0 | 0.00 | 0.00 | 0.00 | 74 | 1014.6 |
| 20260509030052 | 63 | 0 | 0.0 | 0.0 | 0.00 | 0.00 | 0.00 | 72 | 1014.6 |
| 20260509024552 | 63 | 0 | 0.0 | 0.0 | 0.00 | 0.00 | 0.00 | 71 | 1014.8 |
| 20260509023100 | 63 | 0 | 0.0 | 0.0 | 0.00 | 0.00 | 0.00 | 71 | 1014.8 |
| 20260509021618 | 63 | 0 | 0.0 | 0.0 | 0.00 | 0.00 | 0.00 | 71 | 1014.6 |
| 20260509020054 | 64 | 0 | 0.0 | 0.0 | 0.00 | 0.00 | 0.00 | 71 | 1014.9 |
| 20260509014550 | 64 | 0 | 0.0 | 0.0 | 0.00 | 0.00 | 0.00 | 71 | 1014.5 |
| 20260509013059 | 64 | 0 | 0.0 | 0.0 | 0.00 | 0.00 | 0.00 | 71 | 1014.6 |
| 20260509011550 | 64 | 0 | 0.0 | 0.0 | 0.00 | 0.00 | 0.00 | 71 | 1014.4 |
| 20260509010050 | 65 | 0 | 0.0 | 0.0 | 0.00 | 0.00 | 0.00 | 70 | 1014.0 |
| 20260509004552 | 65 | 0 | 0.0 | 0.0 | 0.00 | 0.00 | 0.00 | 68 | 1014.3 |
| 20260509003059 | 66 | 0 | 0.0 | 0.0 | 0.00 | 0.00 | 0.00 | 66 | 1014.1 |
| 20260509001552 | 66 | 0 | 0.0 | 0.0 | 0.00 | 0.00 | 0.00 | 65 | 1014.0 |
| 20260508234553 | 67 | 0 | 0.0 | 0.0 | 0.00 | 0.00 | 0.00 | 64 | 1013.7 |
| 20260508233053 | 68 | 0 | 0.0 | 0.0 | 0.00 | 0.00 | 0.00 | 62 | 1013.7 |
| 20260508231557 | 68 | 0 | 0.0 | 0.0 | 0.00 | 0.00 | 0.00 | 60 | 1013.8 |
| 20260508230106 | 69 | 0 | 0.0 | 0.0 | 0.00 | 0.00 | 0.00 | 58 | 1013.8 |
| 20260508224549 | 69 | 0 | 0.0 | 0.0 | 0.00 | 0.00 | 0.00 | 58 | 1013.8 |
| 20260508223051 | 69 | 0 | 0.0 | 3.0 | 0.00 | 0.00 | 0.00 | 56 | 1013.9 |
| 20260508221551 | 69 | 82 | 3.0 | 4.0 | 0.00 | 0.00 | 0.00 | 54 | 1013.9 |
| 20260508220050 | 69 | 71 | 2.0 | 4.0 | 0.00 | 0.00 | 0.00 | 56 | 1013.9 |
| 20260508214551 | 69 | 68 | 2.0 | 3.0 | 0.00 | 0.00 | 0.00 | 56 | 1014.0 |
| 20260508213050 | 69 | 71 | 4.0 | 6.0 | 0.00 | 0.00 | 0.00 | 54 | 1014.1 |
| 20260508211550 | 69 | 72 | 4.0 | 7.0 | 0.00 | 0.00 | 0.00 | 57 | 1014.0 |
| 20260508210049 | 69 | 63 | 5.0 | 7.0 | 0.00 | 0.00 | 0.00 | 58 | 1014.0 |
| 20260508204550 | 69 | 68 | 5.0 | 6.0 | 0.00 | 0.00 | 0.00 | 55 | 1014.2 |
| 20260508203052 | 69 | 72 | 5.0 | 6.0 | 0.00 | 0.00 | 0.00 | 57 | 1014.5 |
| 20260508201553 | 69 | 67 | 5.0 | 7.0 | 0.00 | 0.00 | 0.00 | 57 | 1014.7 |
| 20260508200054 | 68 | 62 | 4.0 | 6.0 | 0.00 | 0.00 | 0.00 | 57 | 1014.5 |
| 20260508194620 | 68 | 65 | 5.0 | 7.0 | 0.00 | 0.00 | 0.00 | 57 | 1014.6 |
| 20260508193051 | 68 | 63 | 4.0 | 6.0 | 0.00 | 0.00 | 0.00 | 57 | 1014.7 |
| 20260508191550 | 68 | 70 | 4.0 | 6.0 | 0.00 | 0.00 | 0.00 | 55 | 1015.1 |
| 20260508190050 | 67 | 59 | 3.0 | 6.0 | 0.00 | 0.00 | 0.00 | 56 | 1015.5 |
| 20260508184552 | 67 | 64 | 4.0 | 6.0 | 0.00 | 0.00 | 0.00 | 58 | 1015.7 |
| 20260508183050 | 67 | 62 | 5.0 | 6.0 | 0.00 | 0.00 | 0.00 | 54 | 1015.7 |
| 20260508181622 | 66 | 43 | 3.0 | 6.0 | 0.00 | 0.00 | 0.00 | 57 | 1016.0 |
| 20260508174601 | 66 | 49 | 4.0 | 6.0 | 0.00 | 0.00 | 0.00 | 59 | 1016.3 |
| 20260508173054 | 65 | 60 | 4.0 | 6.0 | 0.00 | 0.00 | 0.00 | 57 | 1016.5 |
| 20260508171555 | 65 | 47 | 4.0 | 6.0 | 0.00 | 0.00 | 0.00 | 57 | 1016.5 |
| 20260508170055 | 65 | 52 | 4.0 | 6.0 | 0.00 | 0.00 | 0.00 | 58 | 1016.9 |
| 20260508164557 | 65 | 65 | 5.0 | 8.0 | 0.00 | 0.02 | 0.00 | 59 | 1017.1 |
| 20260508163050 | 65 | 58 | 5.0 | 7.0 | 0.00 | 0.02 | 0.00 | 57 | 1017.4 |
| 20260508161605 | 65 | 47 | 8.0 | 9.0 | 0.00 | 0.02 | 0.00 | 60 | 1017.5 |
| 20260508160057 | 65 | 72 | 4.0 | 8.0 | 0.00 | 0.02 | 0.00 | 59 | 1017.6 |
| 20260508154558 | 65 | 49 | 0.0 | 7.0 | 0.00 | 0.05 | 0.00 | 58 | 1017.8 |
| 20260508153055 | 66 | 0 | 0.0 | 0.0 | 0.00 | 0.05 | 0.00 | 60 | 1018.0 |
| 20260508151606 | 64 | 0 | 0.0 | 8.0 | 0.00 | 0.05 | 0.00 | 62 | 1017.8 |
| 20260508150056 | 64 | 0 | 0.0 | 8.0 | 0.00 | 0.05 | 0.00 | 62 | 1017.8 |
| 20260508144553 | 64 | 93 | 4.0 | 8.0 | 0.00 | 0.73 | 0.00 | 63 | 1017.9 |
| 20260508143051 | 63 | 0 | 3.0 | 9.0 | 0.00 | 0.73 | 0.00 | 63 | 1018.0 |
| 20260508141550 | 63 | 82 | 4.0 | 8.0 | 0.00 | 0.73 | 0.00 | 61 | 1017.9 |
| 20260508140052 | 63 | 63 | 4.0 | 11.0 | 0.00 | 0.73 | 0.00 | 62 | 1017.8 |
| 20260508134558 | 63 | 57 | 7.0 | 12.0 | 0.00 | 0.78 | 0.00 | 64 | 1017.9 |
| 20260508133102 | 63 | 65 | 9.0 | 14.0 | 0.00 | 0.78 | 0.00 | 65 | 1017.6 |
| 20260508131555 | 62 | 60 | 7.0 | 14.0 | 0.00 | 0.78 | 0.00 | 71 | 1017.7 |
| 20260508130053 | 62 | 65 | 9.0 | 13.0 | 0.00 | 0.78 | 0.00 | 73 | 1017.3 |
| 20260508124554 | 62 | 64 | 8.0 | 11.0 | 0.00 | 0.78 | 0.00 | 75 | 1017.1 |
| 20260508123057 | 61 | 64 | 10.0 | 14.0 | 0.00 | 0.78 | 0.00 | 73 | 1016.9 |
| 20260508121554 | 61 | 73 | 7.0 | 9.0 | 0.00 | 0.78 | 0.00 | 79 | 1016.9 |
| 20260508120052 | 61 | 63 | 7.0 | 9.0 | 0.00 | 0.78 | 0.00 | 82 | 1016.7 |
| 20260508114558 | 61 | 58 | 5.0 | 7.0 | 0.00 | 0.81 | 0.00 | 85 | 1016.6 |
| 20260508113052 | 61 | 0 | 0.0 | 4.0 | 0.00 | 0.81 | 0.00 | 87 | 1016.3 |
| 20260508111602 | 60 | 0 | 0.0 | 0.0 | 0.00 | 0.81 | 0.00 | 89 | 1015.9 |
| 20260508104550 | 59 | 39 | 1.0 | 4.0 | 0.00 | 1.28 | 0.00 | 90 | 1015.6 |
| 20260508103052 | 59 | 360 | 1.0 | 3.0 | 0.00 | 1.28 | 0.00 | 90 | 1015.3 |
| 20260508101552 | 59 | 28 | 0.0 | 4.0 | 0.00 | 1.28 | 0.00 | 90 | 1014.9 |
| 20260508100100 | 59 | 53 | 0.0 | 3.0 | 0.00 | 1.28 | 0.00 | 90 | 1014.7 |
| 20260508094607 | 59 | 19 | 2.0 | 4.0 | 0.00 | 1.30 | 0.00 | 90 | 1014.5 |
| 20260508093055 | 59 | 0 | 1.0 | 4.0 | 0.00 | 1.30 | 0.00 | 90 | 1014.6 |
| 20260508091549 | 60 | 0 | 2.0 | 4.0 | 0.00 | 1.30 | 0.00 | 89 | 1014.4 |
| 20260508090054 | 60 | 54 | 3.0 | 5.0 | 0.00 | 1.30 | 0.00 | 88 | 1014.3 |
| 20260508084554 | 60 | 0 | 2.0 | 5.0 | 0.00 | 1.31 | 0.00 | 88 | 1014.3 |
| 20260508083056 | 61 | 0 | 0.0 | 5.0 | 0.00 | 1.31 | 0.00 | 87 | 1014.2 |
| 20260508081605 | 61 | 41 | 0.0 | 5.0 | 0.00 | 1.31 | 0.00 | 87 | 1014.1 |
| 20260508080052 | 61 | 0 | 0.0 | 5.0 | 0.00 | 1.31 | 0.00 | 86 | 1014.0 |
| 20260508074548 | 62 | 62 | 4.0 | 9.0 | 0.00 | 1.31 | 0.00 | 85 | 1013.9 |
| 20260508073054 | 62 | 52 | 7.0 | 10.0 | 0.00 | 1.31 | 0.00 | 83 | 1013.9 |
| 20260508071556 | 62 | 70 | 6.0 | 10.0 | 0.00 | 1.31 | 0.00 | 82 | 1013.8 |
| 20260508064550 | 62 | 62 | 7.0 | 10.0 | 0.00 | 1.31 | 0.00 | 83 | 1013.5 |
| 20260508063048 | 63 | 70 | 5.0 | 8.0 | 0.00 | 1.31 | 0.00 | 85 | 1013.6 |
| 20260508061549 | 63 | 65 | 2.0 | 7.0 | 0.00 | 1.31 | 0.00 | 84 | 1013.8 |
| 20260508060052 | 63 | 65 | 6.0 | 10.0 | 0.00 | 1.31 | 0.00 | 84 | 1013.8 |
| 20260508054557 | 63 | 60 | 7.0 | 10.0 | 0.00 | 1.31 | 0.00 | 82 | 1014.0 |